Nickajack Lake Weather Center

Moon Phase Calendar



Nickajack Lake Water Level
Online Cameras

 


      

Current Conditions in Ketner Mill
1/31/2023 3:54:26 AM

52°F
Feels Like 51
Clouds
Humidity
97%
Pressure
30.09"
Wind
0.7 mph (N)
Dew Point
51°F
UV Index
0/10 (Low)
Visibility
6 mi

Hourly Forecast

Date & Time Tue, Jan 31
3:00 AM
Tue, Jan 31
4:00 AM
Tue, Jan 31
5:00 AM
Tue, Jan 31
6:00 AM
Tue, Jan 31
7:00 AM
Tue, Jan 31
8:00 AM
Tue, Jan 31
9:00 AM
Tue, Jan 31
10:00 AM
Tue, Jan 31
11:00 AM
Tue, Jan 31
12:00 PM
Tue, Jan 31
1:00 PM
Tue, Jan 31
2:00 PM
Tue, Jan 31
3:00 PM
Tue, Jan 31
4:00 PM
Tue, Jan 31
5:00 PM
Tue, Jan 31
6:00 PM
Tue, Jan 31
7:00 PM
Tue, Jan 31
8:00 PM
Tue, Jan 31
9:00 PM
Tue, Jan 31
10:00 PM
Tue, Jan 31
11:00 PM
Wed, Feb 1
12:00 AM
Wed, Feb 1
1:00 AM
Wed, Feb 1
2:00 AM
Wed, Feb 1
3:00 AM
Wed, Feb 1
4:00 AM
Wed, Feb 1
5:00 AM
Wed, Feb 1
6:00 AM
Wed, Feb 1
7:00 AM
Wed, Feb 1
8:00 AM
Wed, Feb 1
9:00 AM
Wed, Feb 1
10:00 AM
Wed, Feb 1
11:00 AM
Wed, Feb 1
12:00 PM
Wed, Feb 1
1:00 PM
Wed, Feb 1
2:00 PM
Wed, Feb 1
3:00 PM
Wed, Feb 1
4:00 PM
Wed, Feb 1
5:00 PM
Wed, Feb 1
6:00 PM
Wed, Feb 1
7:00 PM
Wed, Feb 1
8:00 PM
Wed, Feb 1
9:00 PM
Wed, Feb 1
10:00 PM
Wed, Feb 1
11:00 PM
Thu, Feb 2
12:00 AM
Thu, Feb 2
1:00 AM
Thu, Feb 2
2:00 AM
Condition
Clouds

Clouds

Clouds

Clouds

Rain

Rain

Rain

Rain

Clouds

Clouds

Clouds

Clouds

Clouds

Clouds

Clouds

Clouds

Clouds

Clouds

Rain

Rain

Rain

Rain

Rain

Rain

Rain

Rain

Clouds

Rain

Clouds

Clouds

Clouds

Clouds

Clouds

Clouds

Clouds

Clouds

Clouds

Clouds

Clouds

Clouds

Clouds

Clouds

Rain

Clouds

Rain

Rain

Rain

Rain
Temperature 52°F52°F52°F52°F51°F49°F46°F45°F45°F45°F46°F46°F47°F47°F46°F46°F46°F45°F44°F43°F43°F42°F41°F41°F40°F40°F40°F40°F40°F40°F40°F42°F43°F46°F46°F47°F47°F47°F45°F44°F43°F44°F44°F43°F43°F43°F43°F43°F
Feels Like 51°F51°F51°F51°F50°F47°F44°F44°F44°F44°F45°F46°F47°F47°F46°F46°F45°F44°F44°F43°F41°F40°F39°F38°F40°F38°F38°F40°F40°F38°F39°F40°F43°F46°F45°F47°F47°F47°F44°F43°F43°F44°F44°F43°F43°F43°F43°F43°F
Cloudiness 100%100%100%100%100%100%100%100%100%100%100%100%100%100%100%100%100%100%100%100%100%100%100%100%100%100%100%100%100%100%100%100%100%100%100%100%100%100%100%100%100%100%100%100%100%100%100%100%
Visibility 6 mi6 mi6 mi6 mi6 mi6 mi6 mi6 mi6 mi6 mi6 mi6 mi6 mi6 mi6 mi6 mi6 mi6 mi6 mi6 mi6 mi6 mi6 mi6 mi6 mi6 mi6 mi6 mi6 mi6 mi6 mi6 mi6 mi6 mi6 mi6 mi6 mi6 mi6 mi6 mi6 mi6 mi6 mi6 mi6 mi3 mi3 mi4 mi
Precipitation 0%5%35%55%44%55%63%64%64%64%0%0%0%0%0%0%31%35%55%70%86%93%100%100%100%100%80%100%23%4%0%0%0%0%0%0%0%0%0%0%0%4%24%4%35%89%100%100%
Humidity 97%97%98%98%97%96%94%93%92%91%91%89%89%90%92%93%93%93%94%95%95%95%94%94%94%93%93%93%93%92%91%88%85%81%81%80%81%83%89%92%93%93%94%94%95%97%98%98%
Dew Point 51°F51°F51°F51°F50°F48°F44°F42°F42°F42°F42°F42°F42°F43°F43°F43°F43°F42°F41°F41°F40°F39°F38°F38°F37°F37°F37°F37°F37°F37°F37°F37°F38°F39°F40°F40°F40°F41°F41°F41°F40°F41°F41°F40°F41°F41°F41°F41°F
Pressure 30.12"30.09"30.09"30.12"30.15"30.18"30.24"30.27"30.27"30.21"30.21"30.18"30.18"30.18"30.21"30.21"30.24"30.24"30.24"30.24"30.27"30.24"30.24"30.27"30.27"30.27"30.27"30.3"30.3"30.33"30.33"30.36"30.36"30.3"30.27"30.27"30.24"30.24"30.27"30.27"30.27"30.27"30.27"30.24"30.24"30.24"30.24"30.18"
Wind Speed 1.8 mph0.7 mph1.7 mph2.8 mph4.1 mph4.8 mph5.3 mph3.3 mph3.3 mph3 mph3.1 mph2.5 mph2 mph2.4 mph2.3 mph2.6 mph3.3 mph3.5 mph2.3 mph2.1 mph3.8 mph3.7 mph3.6 mph3.9 mph2.3 mph3.6 mph3.2 mph1.9 mph2.3 mph3.4 mph3.1 mph3.1 mph2.8 mph2.5 mph3.2 mph2 mph2.8 mph3 mph3.1 mph3.2 mph1.5 mph2.4 mph2.6 mph2.4 mph1.8 mph0.4 mph1.3 mph1.9 mph
Wind
Direction
306°
NW
10°
N
275°
W
299°
WNW
306°
NW
306°
NW
299°
WNW
305°
NW
304°
NW
301°
WNW
309°
NW
290°
WNW
284°
WNW
302°
WNW
299°
WNW
300°
WNW
292°
WNW
298°
WNW
313°
NW
313°
NW
313°
NW
315°
NW
306°
NW
318°
NW
321°
NW
330°
NNW
345°
NNW
337°
NNW
12°
NNE
337°
NNW
338°
NNW
347°
NNW
353°
N
16°
NNE
31°
NNE
41°
NE
46°
NE
62°
ENE
59°
ENE
105°
ESE
76°
ENE
114°
ESE
99°
E
100°
E
82°
E
15°
NNE
135°
SE
133°
SE

Daily Forecast

Date High Low Precip. Humidity
Today
Jan 31

Rain
53 °F
43 °F
86%
92%
Wednesday
Feb 1

Rain
47 °F
40 °F
100%
85%
Thursday
Feb 2

Rain
46 °F
43 °F
100%
99%
Friday
Feb 3

Rain
45 °F
32 °F
99%
55%
Saturday
Feb 4

Clouds
46 °F
31 °F
0%
67%
Sunday
Feb 5

Rain
50 °F
36 °F
25%
86%
Monday
Feb 6

Clouds
57 °F
37 °F
0%
55%
Tuesday
Feb 7

Clouds
59 °F
40 °F
0%
56%
Wednesday
Feb 8

Clouds
58 °F
46 °F
1%
76%
Thursday
Feb 9

Rain
64 °F
49 °F
87%
72%
Friday
Feb 10

Rain
60 °F
49 °F
100%
80%
Saturday
Feb 11

Clouds
49 °F
35 °F
0%
64%
Sunday
Feb 12

Clear
53 °F
32 °F
0%
36%
Monday
Feb 13

Clear
57 °F
36 °F
0%
50%
Tuesday
Feb 14

Clouds
47 °F
28 °F
22%
68%
Wednesday
Feb 15

Clear
47 °F
26 °F
0%
27%

Temperature 8-14 Day Outlook



Precipitation 8-14 Day Outlook




Quick Links
Nickajack Lake News
Nickajack Lake Photos
Nickajack Lake Videos




About Us
Contact Us
Site Map
Search Site
Advertise With Us
   
Nickajack.USLakes.info
THE NICKAJACK LAKE WEBSITE

Copyright 2023, Lakes Online
Privacy    |    Legal